Weather History for Renton, WA

Change the Weather History Date:

Sunday, May 18, 2014

  Actual Average Record
Temperature  
Mean Temperature 60 °F -  
Max Temperature 69 °F 64 °F 78 °F (2006)
Min Temperature 53 °F 47 °F 39 °F (2003)
Degree Days  
Heating Degree Days 4    
Growing Degree Days 10 (Base 50)    
Moisture  
Dew Point 50 °F    
Average Humidity 75    
Maximum Humidity 90    
Minimum Humidity 40    
Precipitation  
Precipitation 0.00 in - - ()
Sea Level Pressure  
Sea Level Pressure 29.87 in    
Wind  
Wind Speed 5 mph (SSE)    
Max Wind Speed 15 mph    
Max Gust Speed 22 mph    
Visibility 10 miles    
Events Rain    
Averages and records for this station are not official NWS values.
T = Trace of Precipitation, MM = Missing Value Source: NWS Daily Summary

Daily Weather History Graph

Daily Weather History Graph

Search for Another Location

Airport:

Trip Planner

Search our weather history database for the weather conditions in past years. The results will help you decide how hot, cold, wet, or windy it might be!

Date:

Astronomy

May. 18, 2014 Rise Set
Actual Time 5:28 AM PDT 8:43 PM PDT
Civil Twilight 4:51 AM PDT 9:20 PM PDT
Nautical Twilight 4:02 AM PDT 10:09 PM PDT
Astronomical Twilight 3:01 AM PDT 11:10 PM PDT
Moon No Moon Rise 9:26 AM PDT (5/18)
Length of Visible Light 16h 29m
Length of Day
15h 15m
Waning Gibbous, 80% of the Moon is Illuminated
May 18
Waning Gibbous
May 21
Last Quarter
May 28
New
Jun 5
First Quarter
Jun 12
Full

Hourly Weather History & Observations

Time (PDT) Temp. Dew Point Humidity Pressure Visibility Wind Dir Wind Speed Gust Speed Precip Events Conditions
12:53 AM 55.9 °F 50.0 °F 80% 29.88 in 10.0 mi North 4.6 mph - N/A   Partly Cloudy
1:53 AM 55.0 °F 50.0 °F 83% 29.87 in 10.0 mi North 3.5 mph - N/A   Mostly Cloudy
2:53 AM 54.0 °F 50.0 °F 86% 29.86 in 10.0 mi Calm Calm - N/A   Scattered Clouds
3:53 AM 53.1 °F 48.9 °F 86% 29.86 in 10.0 mi Calm Calm - N/A   Mostly Cloudy
4:53 AM 53.1 °F 50.0 °F 89% 29.86 in 10.0 mi Calm Calm - N/A   Overcast
5:53 AM 53.1 °F 50.0 °F 89% 29.86 in 10.0 mi ESE 3.5 mph - N/A   Overcast
6:53 AM 54.0 °F 50.0 °F 86% 29.86 in 10.0 mi Calm Calm - N/A   Overcast
7:53 AM 55.9 °F 48.9 °F 77% 29.86 in 10.0 mi SSE 5.8 mph - N/A   Overcast
8:53 AM 57.0 °F 48.9 °F 74% 29.86 in 10.0 mi South 5.8 mph - N/A   Overcast
9:53 AM 59.0 °F 48.0 °F 67% 29.86 in 10.0 mi SSE 6.9 mph - N/A   Overcast
10:53 AM 61.0 °F 48.9 °F 64% 29.86 in 10.0 mi Variable 4.6 mph - N/A   Overcast
11:53 AM 64.0 °F 48.0 °F 56% 29.85 in 10.0 mi South 3.5 mph - N/A   Partly Cloudy
12:53 PM 66.0 °F 46.0 °F 48% 29.83 in 10.0 mi SSE 9.2 mph - N/A   Clear
1:53 PM 66.9 °F 45.0 °F 45% 29.83 in 10.0 mi SSW 6.9 mph - N/A   Partly Cloudy
2:53 PM 68.0 °F 43.0 °F 40% 29.82 in 10.0 mi North - - N/A   Partly Cloudy
3:53 PM 63.0 °F 50.0 °F 63% 29.86 in 10.0 mi SSW 15.0 mph 21.9 mph 0.00 in   Overcast
4:53 PM 62.1 °F 53.1 °F 72% 29.86 in 10.0 mi SSE 12.7 mph - 0.00 in Rain Light Rain
5:53 PM 61.0 °F 52.0 °F 72% 29.87 in 10.0 mi SSE 12.7 mph 17.3 mph 0.00 in   Overcast
6:46 PM 61.0 °F 51.1 °F 70% 29.86 in 10.0 mi South 10.4 mph - 0.00 in Rain Light Rain
6:53 PM 61.0 °F 51.1 °F 70% 29.88 in 10.0 mi SSW 6.9 mph - 0.00 in   Overcast
7:53 PM 57.0 °F 54.0 °F 89% 29.89 in 10.0 mi SE 6.9 mph - 0.00 in   Overcast
8:01 PM 57.0 °F 53.1 °F 87% 29.88 in 10.0 mi SSE 10.4 mph - N/A   Overcast
8:53 PM 57.0 °F 53.1 °F 87% 29.90 in 10.0 mi SE 6.9 mph - N/A   Overcast
9:26 PM 55.9 °F 53.1 °F 90% 29.89 in 10.0 mi SE 6.9 mph - N/A   Overcast
9:53 PM 57.0 °F 52.0 °F 83% 29.92 in 10.0 mi SSE 5.8 mph - N/A   Overcast
10:53 PM 57.0 °F 51.1 °F 81% 29.92 in 10.0 mi SE 5.8 mph - N/A   Overcast
11:53 PM 55.9 °F 52.0 °F 87% 29.93 in 10.0 mi SE 4.6 mph - N/A   Overcast